Flag for Germany Weather past 2 weeks in Lübbecke, North Rhine-Westphalia, Germany

Now
41 °F

Passing clouds.


Feels Like: 33 °F
Forecast: 37 / 46 °F
Wind: 15 mph from West

Location: Bueckeburg

Current Time: Mar 30, 2015 at 10:52:46 PM

Latest Report: Mar 30, 2015 at 9:20 PM


Visibility: N/A

Pressure: 29.74 "Hg

Humidity: 61%

Dew point: 28 °F

Location of LübbeckeLocation

Historic Weather in Lübbecke — Graph

°F

Lübbecke temperature yesterday

Maximum temperature yesterday: 52 °F (at 1:20 AM)
Minimum temperature yesterday: 45 °F (at 11:20 PM)
Average temperature yesterday: 50 °F

Past Weeks' High & Low Weather Summary

 TemperatureHumidityPressure
High63 °F (Mar 25, 3:20 PM)100% (Mar 18, 3:20 AM)30.36 "Hg (Mar 18, 3:20 AM)
Low30 °F (Mar 20, 5:20 AM)39% (Mar 25, 3:20 PM)29.09 "Hg (Mar 29, 8:20 PM)
Average43 °F78%29.99 "Hg
* Reported Mar 15 8:20 PM — Mar 30 9:20 PM, Lübbecke, Weather by CustomWeather, © 2015

Note: Actual official high and low records may vary slightly from our data, if they occured in-between our weather recording intervals... More about our weather records

Advertising

Lübbecke weather history for previous 24 hours

 ConditionsComfort  
Time TempWeatherWind HumidityBarometerVisibility
9:20 PM
Mon, Mar 30
41 °FPassing clouds.15 mph61%29.74 "HgN/A
8:20 PM43 °FPassing clouds.17 mph61%29.74 "HgN/A
7:20 PM45 °FPassing clouds.17 mph61%29.71 "HgN/A
6:48 PM45 °FSprinkles. Scattered clouds.25 mph57%29.71 "HgN/A
6:20 PM46 °FScattered clouds.24 mph53%29.68 "HgN/A
5:20 PM45 °FScattered showers. Scattered clouds.16 mph71%29.65 "HgN/A
4:20 PM45 °FSprinkles. Scattered clouds.20 mph66%29.62 "HgN/A
3:58 PM45 °FRain showers. Scattered clouds.23 mph66%29.62 "Hg5 mi
3:20 PM43 °FScattered clouds.14 mph81%29.59 "HgN/A
2:20 PM43 °FSprinkles. Partly sunny.21 mph71%29.56 "HgN/A
1:51 PM45 °FSprinkles. Partly sunny.21 mph66%29.56 "HgN/A
1:20 PM45 °FSprinkles. Partly sunny.18 mph71%29.53 "HgN/A
12:54 PM46 °FSprinkles. Partly sunny.29 mph57%29.50 "HgN/A
12:20 PM45 °FPartly sunny.23 mph71%29.47 "HgN/A
12:00 PM45 °FSprinkles. Partly sunny.29 mph66%29.47 "HgN/A
11:20 AM45 °FPartly sunny.28 mph66%29.45 "HgN/A
10:20 AM43 °FPartly sunny.31 mph71%29.42 "HgN/A
9:20 AM43 °FPartly sunny.25 mph71%29.39 "HgN/A
8:20 AM39 °FBroken clouds.23 mph87%29.39 "HgN/A
7:20 AM43 °FPartly cloudy.15 mph71%29.33 "HgN/A
6:20 AM43 °FPartly cloudy.23 mph71%29.33 "HgN/A
5:20 AM43 °FPartly cloudy.13 mph81%29.27 "HgN/A
4:57 AM43 °FPassing clouds.22 mph81%29.27 "Hg5 mi
4:49 AM43 °FSprinkles. Passing clouds.25 mph81%29.27 "Hg3 mi
4:20 AM45 °FPassing clouds.17 mph81%29.27 "HgN/A
3:20 AM45 °FPassing clouds.18 mph81%29.30 "HgN/A
2:20 AM45 °FPassing clouds.20 mph81%29.27 "HgN/A
1:20 AM45 °FPartly cloudy.22 mph76%29.27 "HgN/A
12:20 AM45 °FPartly cloudy.23 mph81%29.24 "HgN/A
11:20 PM
Sun, Mar 29
45 °FPartly cloudy.30 mph81%29.21 "HgN/A
10:20 PM48 °FPassing clouds.30 mph76%29.15 "HgN/A
Weather by CustomWeather, © 2015

See weather overviewHow to use our weather pages